When you browse on this site, cookies collect data to enhance your experience and personalize the content and advertising you see.
Visit our Privacy Policy to learn more. By continuing to use the site, you agree to this use of cookies and data.

Hourly Weather Revolyucii

Today, 15 August, Saturday

Time Temperature Precipitation Wind Pressure Humidity
00:00 +9°C° 0 mm 2 mps 745 mmHg 87%
01:00 +9°C° 0 mm 2 mps 745 mmHg 89%
02:00 +8°C° 0 mm 2 mps 745 mmHg 92%
03:00 +8°C° 0 mm 2 mps 746 mmHg 92%
04:00 +8°C° 0 mm 2 mps 746 mmHg 93%
05:00 +8°C° 0 mm 2 mps 746 mmHg 93%
06:00 +10°C° 0 mm 2 mps 746 mmHg 86%
07:00 +13°C° 0 mm 2 mps 746 mmHg 80%
08:00 +14°C° 0 mm 3 mps 746 mmHg 72%
09:00 +16°C° 0 mm 3 mps 746 mmHg 67%
10:00 +17°C° 0 mm 3 mps 746 mmHg 62%
11:00 +18°C° 0 mm 3 mps 746 mmHg 57%
12:00 +19°C° 0 mm 3 mps 746 mmHg 57%
13:00 +19°C° 0 mm 3 mps 746 mmHg 56%
14:00 +19°C° 0 mm 3 mps 746 mmHg 56%
15:00 +19°C° 0 mm 3 mps 745 mmHg 59%
16:00 +19°C° 0 mm 2 mps 745 mmHg 63%
17:00 +19°C° 0 mm 2 mps 745 mmHg 66%
18:00 +17°C° 0 mm 2 mps 745 mmHg 70%
19:00 +16°C° 0 mm 2 mps 745 mmHg 73%
20:00 +14°C° 0 mm 2 mps 745 mmHg 77%
21:00 +14°C° 0 mm 2 mps 745 mmHg 80%
22:00 +14°C° 0 mm 2 mps 744 mmHg 84%
23:00 +14°C° 0 mm 2 mps 744 mmHg 87%

Tomorrow, 16 August, Sunday

Time Temperature Precipitation Wind Pressure Humidity
00:00 +14°C° 0.6 mm 1 mps 744 mmHg 90%
01:00 +14°C° 0.6 mm 1 mps 744 mmHg 92%
02:00 +13°C° 0.6 mm 1 mps 744 mmHg 95%
03:00 +13°C° 0.5 mm 1 mps 744 mmHg 95%
04:00 +13°C° 0.5 mm 1 mps 744 mmHg 95%
05:00 +13°C° 0.5 mm 1 mps 744 mmHg 95%
06:00 +14°C° 0 mm 1 mps 744 mmHg 91%
07:00 +15°C° 0 mm 1 mps 744 mmHg 87%
08:00 +18°C° 0 mm 1 mps 743 mmHg 82%
09:00 +17°C° 0 mm 2 mps 743 mmHg 80%
10:00 +18°C° 0 mm 2 mps 743 mmHg 77%
11:00 +19°C° 0 mm 2 mps 743 mmHg 75%
12:00 +20°C° 0 mm 2 mps 743 mmHg 71%
13:00 +21°C° 0 mm 2 mps 743 mmHg 67%
14:00 +23°C° 0 mm 2 mps 743 mmHg 63%
15:00 +23°C° 0.2 mm 2 mps 742 mmHg 67%
16:00 +21°C° 0.2 mm 3 mps 742 mmHg 71%
17:00 +21°C° 0.2 mm 3 mps 742 mmHg 75%
18:00 +20°C° 0 mm 3 mps 742 mmHg 80%
19:00 +18°C° 0 mm 2 mps 742 mmHg 85%
20:00 +17°C° 0 mm 2 mps 742 mmHg 90%
21:00 +17°C° 0 mm 2 mps 742 mmHg 91%
22:00 +16°C° 0 mm 3 mps 742 mmHg 92%
23:00 +16°C° 0 mm 3 mps 742 mmHg 93%

Day after tomorrow, 17 August, Monday

Time Temperature Precipitation Wind Pressure Humidity
00:00 +16°C° 0 mm 3 mps 742 mmHg 93%
01:00 +14°C° 0 mm 3 mps 742 mmHg 93%
02:00 +14°C° 0 mm 3 mps 742 mmHg 93%
03:00 +14°C° 0 mm 3 mps 742 mmHg 93%
04:00 +14°C° 0 mm 3 mps 742 mmHg 93%
05:00 +14°C° 0 mm 3 mps 742 mmHg 94%
06:00 +17°C° 0 mm 3 mps 742 mmHg 89%
07:00 +18°C° 0 mm 3 mps 742 mmHg 84%
08:00 +20°C° 0 mm 3 mps 742 mmHg 79%
09:00 +22°C° 0.1 mm 4 mps 742 mmHg 73%
10:00 +23°C° 0.1 mm 4 mps 742 mmHg 67%
11:00 +26°C° 0.1 mm 5 mps 742 mmHg 61%
12:00 +26°C° 0.4 mm 5 mps 742 mmHg 61%
13:00 +26°C° 0.4 mm 5 mps 741 mmHg 61%
14:00 +26°C° 0.4 mm 5 mps 741 mmHg 61%
15:00 +25°C° 0.4 mm 5 mps 741 mmHg 65%
16:00 +25°C° 0.4 mm 4 mps 741 mmHg 69%
17:00 +23°C° 0.4 mm 4 mps 741 mmHg 73%
18:00 +22°C° 0.1 mm 3 mps 741 mmHg 78%
19:00 +20°C° 0.1 mm 3 mps 741 mmHg 82%
20:00 +19°C° 0.1 mm 3 mps 741 mmHg 87%
21:00 +18°C° 0 mm 3 mps 741 mmHg 89%
22:00 +17°C° 0 mm 2 mps 741 mmHg 90%
23:00 +17°C° 0 mm 2 mps 742 mmHg 92%

18 August, Tuesday

Time Temperature Precipitation Wind Pressure Humidity
00:00 +16°C° 0 mm 2 mps 742 mmHg 93%
01:00 +16°C° 0 mm 2 mps 742 mmHg 94%
02:00 +16°C° 0 mm 2 mps 742 mmHg 95%
03:00 +15°C° 0 mm 2 mps 742 mmHg 95%
04:00 +15°C° 0 mm 1 mps 742 mmHg 95%
05:00 +15°C° 0 mm 1 mps 742 mmHg 95%
06:00 +16°C° 0 mm 1 mps 742 mmHg 88%
07:00 +19°C° 0 mm 1 mps 742 mmHg 82%
08:00 +19°C° 0 mm 2 mps 743 mmHg 75%
09:00 +21°C° 0 mm 2 mps 743 mmHg 71%
10:00 +23°C° 0 mm 2 mps 743 mmHg 66%
11:00 +24°C° 0 mm 2 mps 742 mmHg 61%
12:00 +24°C° 0 mm 2 mps 742 mmHg 60%
13:00 +25°C° 0 mm 2 mps 742 mmHg 58%
14:00 +25°C° 0 mm 1 mps 742 mmHg 57%
15:00 +25°C° 0.2 mm 1 mps 742 mmHg 61%
16:00 +24°C° 0.2 mm 1 mps 742 mmHg 65%
17:00 +24°C° 0.2 mm 2 mps 742 mmHg 70%
18:00 +23°C° 0.1 mm 2 mps 741 mmHg 73%
19:00 +20°C° 0.1 mm 2 mps 741 mmHg 76%
20:00 +19°C° 0.1 mm 2 mps 741 mmHg 80%
21:00 +18°C° 0.6 mm 2 mps 741 mmHg 82%
22:00 +18°C° 0.6 mm 2 mps 741 mmHg 84%
23:00 +18°C° 0.6 mm 1 mps 741 mmHg 86%

19 August, Wednesday

Time Temperature Precipitation Wind Pressure Humidity
00:00 +17°C° 0.5 mm 2 mps 741 mmHg 87%
01:00 +17°C° 0.5 mm 3 mps 741 mmHg 89%
02:00 +16°C° 0.5 mm 3 mps 741 mmHg 90%
03:00 +16°C° 0 mm 3 mps 741 mmHg 90%
04:00 +16°C° 0 mm 2 mps 741 mmHg 89%
05:00 +16°C° 0 mm 2 mps 741 mmHg 89%
06:00 +18°C° 0 mm 1 mps 741 mmHg 86%
07:00 +19°C° 0 mm 1 mps 741 mmHg 83%
08:00 +21°C° 0 mm 1 mps 741 mmHg 80%
09:00 +22°C° 0.3 mm 1 mps 741 mmHg 74%
10:00 +23°C° 0.3 mm 1 mps 741 mmHg 69%
11:00 +23°C° 0.3 mm 0 mps 741 mmHg 63%
12:00 +24°C° 0.3 mm 1 mps 741 mmHg 67%
13:00 +23°C° 0.3 mm 2 mps 741 mmHg 71%
14:00 +22°C° 0.3 mm 3 mps 741 mmHg 76%
15:00 +21°C° 0.4 mm 3 mps 741 mmHg 79%
16:00 +19°C° 0.4 mm 4 mps 741 mmHg 83%
17:00 +17°C° 0.4 mm 5 mps 741 mmHg 87%
18:00 +17°C° 0.3 mm 5 mps 741 mmHg 87%
19:00 +17°C° 0.3 mm 5 mps 741 mmHg 88%
20:00 +16°C° 0.3 mm 5 mps 741 mmHg 88%
21:00 +17°C° 0 mm 5 mps 741 mmHg 86%
22:00 +17°C° 0 mm 5 mps 741 mmHg 84%
23:00 +17°C° 0 mm 5 mps 741 mmHg 82%

20 August, Thursday

Time Temperature Precipitation Wind Pressure Humidity
00:00 +17°C° 0 mm 5 mps 741 mmHg 83%
01:00 +17°C° 0 mm 5 mps 741 mmHg 84%
02:00 +17°C° 0 mm 5 mps 741 mmHg 85%
03:00 +18°C° 0 mm 4 mps 740 mmHg 86%
04:00 +18°C° 0 mm 4 mps 740 mmHg 87%
05:00 +17°C° 0 mm 4 mps 740 mmHg 88%
06:00 +19°C° 0 mm 4 mps 740 mmHg 83%
07:00 +20°C° 0 mm 4 mps 740 mmHg 79%
08:00 +21°C° 0 mm 4 mps 740 mmHg 74%
09:00 +22°C° 0 mm 4 mps 740 mmHg 71%
10:00 +23°C° 0 mm 4 mps 741 mmHg 68%
11:00 +26°C° 0 mm 4 mps 741 mmHg 65%
12:00 +27°C° 0 mm 4 mps 741 mmHg 62%
13:00 +27°C° 0 mm 4 mps 741 mmHg 60%
14:00 +28°C° 0 mm 4 mps 741 mmHg 57%
15:00 +28°C° 0 mm 3 mps 741 mmHg 61%
16:00 +27°C° 0 mm 3 mps 741 mmHg 65%
17:00 +27°C° 0 mm 2 mps 741 mmHg 68%
18:00 +25°C° 0.5 mm 2 mps 741 mmHg 72%
19:00 +23°C° 0.5 mm 2 mps 741 mmHg 75%
20:00 +20°C° 0.5 mm 2 mps 741 mmHg 79%
21:00 +20°C° 0 mm 2 mps 741 mmHg 80%
22:00 +19°C° 0 mm 2 mps 742 mmHg 81%
23:00 +19°C° 0 mm 2 mps 742 mmHg 81%
Show more